Theta_e
313 312 311 310 310 310 309 309 308 308 308 307 307 306 306 306 307 307 306 306 306 305 305 305 305 305 305 305 305 304 304 304 304 304 304 303 303 303 303 303 303 303 303 303 303 303 303 302 302 302 301 301 300 300 300 299 299 299 299 300 299 299 299 299 298 298 298 297 297 296 296 296 296 296 296 295 296 296 296 296 296 297 297 297 297 297
311 310 310 310 309 309 308 308 308 307 307 307 307 306 306 307 307 306 306 306 306 305 305 305 305 305 305 305 304 304 304 304 303 303 303 303 303 303 303 303 303 303 303 303 303 303 302 302 301 301 301 300 300 300 300 300 300 300 300 299 299 299 298 298 297 297 297 296 295 295 295 295 295 295 295 295 295 295 295 295 296 296 296 296 296 296
310 310 309 309 309 308 308 307 307 307 306 306 306 306 306 306 306 306 306 306 305 305 305 305 305 305 304 304 304 304 303 303 303 303 303 303 303 303 303 303 303 303 303 302 302 302 301 301 301 300 300 300 300 300 300 300 300 300 299 299 298 298 297 296 296 295 294 294 293 292 292 292 292 292 292 293 293 293 294 294 294 294 294 294 294 294
309 309 309 309 308 307 307 307 306 306 306 306 306 306 306 306 306 306 305 305 305 305 305 305 305 304 304 304 304 303 303 303 302 302 302 302 302 302 302 302 302 302 302 301 301 301 301 300 300 300 300 300 300 300 300 300 300 299 299 298 297 296 295 294 293 292 292 291 291 290 290 289 289 289 289 289 290 290 291 291 291 292 292 292 292 292
309 309 308 308 307 307 306 306 306 306 306 306 306 306 306 306 306 305 305 305 305 305 305 305 304 304 304 304 304 303 303 302 302 302 302 301 301 301 301 301 301 301 301 301 301 300 300 300 300 300 300 300 300 300 299 299 298 297 297 295 294 293 292 292 291 290 290 290 289 289 288 288 288 288 288 288 288 288 288 289 289 290 290 290 290 290
308 308 307 307 307 306 306 306 306 306 306 306 306 306 305 305 305 305 304 304 304 304 304 304 304 304 304 304 303 303 303 302 302 302 302 302 301 301 301 301 301 301 301 301 300 300 300 300 300 300 300 299 299 298 298 297 296 295 294 293 292 291 290 290 290 289 289 289 288 288 288 288 288 287 287 287 287 287 287 288 288 288 289 289 289 290
308 307 307 306 306 306 306 306 305 305 305 305 305 305 305 305 304 304 304 304 303 303 303 303 303 303 303 303 303 303 302 302 302 302 302 302 301 301 301 301 301 301 301 300 300 300 300 300 300 299 299 298 297 296 295 294 293 292 291 291 290 290 289 289 289 288 288 288 288 288 288 287 287 287 287 287 287 287 287 287 287 288 288 288 289 289
307 306 306 306 306 306 305 305 305 305 305 305 305 305 304 304 304 303 303 302 302 302 302 301 301 301 301 301 301 301 301 301 301 301 301 301 301 301 300 300 300 300 300 300 299 299 299 298 298 297 296 295 294 293 292 292 291 290 290 289 289 289 288 288 288 288 288 288 287 287 287 287 287 287 287 286 286 286 286 286 287 287 287 288 288 289
306 306 305 305 305 305 305 305 305 305 305 304 304 304 304 303 303 302 301 301 300 300 300 299 299 299 299 299 299 299 299 299 299 299 299 299 299 299 298 298 298 298 298 297 297 296 296 295 295 294 293 292 291 291 290 290 290 289 289 289 288 288 288 288 288 288 288 287 287 287 287 287 287 287 286 286 286 286 286 286 286 287 287 288 288 289
305 305 305 305 305 305 305 305 305 304 304 304 303 303 303 302 301 301 300 299 298 298 297 297 297 297 297 296 296 296 296 296 296 296 296 296 296 296 295 295 295 294 294 294 293 293 293 292 291 291 290 290 290 290 289 289 289 289 288 288 288 288 288 288 287 287 287 287 287 287 287 287 286 286 286 286 286 286 286 286 287 287 288 288 288 289
305 305 305 305 304 304 304 304 304 304 303 303 302 302 301 300 300 299 298 297 296 296 295 295 295 295 295 294 294 294 293 293 293 293 293 293 293 292 292 292 292 291 291 291 291 290 290 290 290 289 289 289 289 289 289 289 288 288 288 288 288 288 287 287 287 287 287 287 287 287 286 286 286 286 286 286 286 286 286 287 287 288 288 288 288 289
304 304 304 304 304 304 304 304 303 303 302 302 301 300 299 299 298 297 296 295 295 294 294 293 293 292 292 292 292 291 291 291 291 291 291 290 290 290 290 290 290 289 289 289 289 289 289 289 289 289 289 289 289 289 288 288 288 288 288 288 287 287 287 287 287 287 287 287 287 286 286 286 286 286 286 286 286 287 287 287 288 288 288 289 289 289
304 304 304 304 303 303 303 303 303 302 301 300 299 298 297 297 296 295 294 294 293 293 292 292 291 291 290 290 290 290 289 289 289 289 289 289 289 289 289 289 289 289 289 289 289 289 289 289 289 289 289 288 288 288 288 288 288 288 287 287 287 287 287 287 287 287 286 286 286 286 286 286 286 286 286 286 287 287 288 288 288 289 289 289 289 289
304 303 303 303 303 303 302 302 301 300 299 298 297 296 295 294 294 293 292 292 292 292 291 290 290 290 289 289 289 289 288 288 288 288 288 288 289 289 289 289 289 289 289 289 289 289 289 288 288 288 288 288 288 288 288 288 287 287 287 287 287 286 286 286 286 286 286 286 286 286 286 286 286 286 286 287 287 288 288 289 289 289 289 289 289 289
303 303 303 302 302 302 301 300 299 298 297 296 295 294 293 292 292 291 291 291 291 290 290 289 289 289 289 289 289 289 289 288 288 288 288 288 289 289 289 289 289 289 288 288 288 288 288 288 288 288 288 288 287 287 287 287 287 286 286 286 286 286 286 286 286 286 286 286 286 286 286 286 286 287 287 288 288 288 289 289 289 289 289 289 290 290
303 302 302 301 301 300 300 299 297 296 295 294 293 292 291 291 290 290 290 290 289 289 289 288 288 288 289 289 289 289 289 289 288 288 288 288 288 288 289 289 288 288 288 288 288 288 287 287 287 287 287 287 286 286 286 286 286 286 286 286 286 286 286 286 286 286 286 286 286 286 287 287 287 287 288 288 288 289 289 289 289 289 290 290 290 290
302 301 301 299 298 298 297 296 295 294 292 291 291 290 290 290 289 289 289 289 288 288 288 288 288 288 289 289 289 289 289 289 289 288 288 288 288 288 288 288 288 287 287 287 287 287 287 286 286 286 286 286 286 286 286 286 286 286 286 286 286 286 286 286 286 287 287 287 287 287 287 287 288 288 288 289 289 289 289 289 290 290 290 290 290 290
301 300 298 297 296 295 294 293 292 291 290 290 289 289 289 289 289 288 288 288 288 288 288 288 288 288 288 288 289 289 289 289 288 288 287 287 287 287 287 287 287 287 287 286 286 286 286 286 286 286 286 286 286 286 286 286 286 286 285 286 286 286 286 287 287 287 287 287 288 288 288 288 288 288 289 289 289 289 289 290 290 290 290 290 290 290
298 297 295 294 293 292 292 291 290 289 289 289 289 289 288 288 288 288 288 288 288 288 288 288 288 287 287 287 288 288 288 288 287 287 287 286 286 286 287 287 287 287 286 286 286 286 286 286 286 286 286 286 286 286 286 286 286 285 286 286 286 287 287 287 288 288 288 288 288 288 288 288 289 289 289 289 289 289 290 290 290 290 290 290 290 290
295 294 292 292 291 290 290 289 289 289 289 289 289 288 288 288 288 288 288 288 288 287 287 287 287 287 286 286 287 287 288 287 287 286 286 286 286 286 286 286 286 286 286 286 286 286 286 286 286 286 286 286 286 286 286 286 286 286 286 286 287 287 288 288 288 288 288 288 288 288 289 289 289 289 289 289 289 290 290 290 290 290 290 290 290 290
292 291 290 290 290 289 289 289 289 289 289 288 288 288 288 288 288 288 287 287 287 287 287 287 287 286 286 286 286 287 287 287 286 286 286 286 286 286 286 286 286 286 286 286 286 286 286 286 286 286 286 286 286 286 286 286 286 286 286 287 287 288 288 288 288 288 288 289 289 289 289 289 289 289 289 289 290 290 290 290 290 290 290 290 290 290
290 289 289 289 289 289 289 289 289 288 288 288 287 287 287 287 287 287 287 287 287 287 287 286 286 286 286 286 286 286 286 286 286 286 286 286 286 286 286 286 286 286 286 286 286 286 286 286 286 287 287 287 287 287 286 286 286 286 287 287 288 288 288 288 289 289 289 289 289 289 289 289 289 289 289 289 290 290 290 290 290 290 290 290 290 290
289 289 289 289 289 288 288 288 288 287 287 287 287 287 287 287 286 286 286 286 286 286 286 286 286 286 286 286 286 286 286 286 286 286 286 285 285 285 286 286 286 286 286 286 286 286 286 287 287 287 287 287 287 287 287 287 287 287 287 288 288 288 289 289 289 289 289 289 289 289 289 289 289 289 289 289 290 290 290 290 290 290 290 290 290 290
288 289 289 288 288 288 287 287 287 287 287 286 286 286 286 286 286 286 286 286 286 286 286 286 286 286 286 286 286 286 286 286 285 285 285 285 285 285 285 285 286 286 286 286 286 286 287 287 287 287 287 287 287 287 287 287 287 288 288 288 288 288 289 289 289 289 289 289 289 289 289 289 289 289 289 289 289 290 290 290 290 290 290 290 290 290
288 288 288 288 288 287 287 287 287 287 286 286 286 286 286 286 286 286 286 286 286 286 286 286 286 286 286 286 286 286 286 285 285 285 285 285 285 285 285 285 286 286 286 286 286 287 287 287 287 287 288 288 288 288 288 288 288 288 288 288 288 289 289 289 289 289 289 289 289 289 289 289 289 289 289 289 290 290 290 290 290 290 290 290 290 291
288 288 288 288 287 287 287 287 287 287 287 286 286 286 286 286 286 286 286 286 286 286 286 286 286 286 286 286 286 286 286 286 285 285 285 285 285 285 285 285 286 286 286 287 287 287 287 287 287 288 288 288 288 288 288 288 288 288 288 288 289 289 289 289 289 289 289 289 289 289 289 289 289 289 289 290 290 290 290 290 290 290 290 290 291 291
288 287 287 287 287 287 287 287 287 287 287 287 286 286 286 286 286 286 285 285 285 286 286 286 286 286 286 285 285 285 286 286 286 285 285 285 285 285 285 286 286 286 287 287 287 287 287 288 288 288 288 288 288 288 288 288 288 289 289 289 289 289 289 289 289 289 289 289 289 289 289 289 289 290 290 290 290 290 290 290 290 290 290 291 291 291
287 287 287 287 287 287 287 287 287 287 287 286 286 286 286 286 286 286 286 286 286 286 286 286 286 285 285 285 285 285 285 285 285 285 285 285 285 285 285 286 286 287 287 287 287 287 288 288 288 288 288 288 289 289 289 289 289 289 289 289 289 289 289 289 289 289 289 289 289 289 290 290 290 290 290 290 290 290 290 290 290 291 291 291 291 291
287 287 287 287 287 287 287 287 287 287 286 286 286 286 286 286 286 286 285 285 286 285 285 285 285 285 285 284 284 284 284 285 285 285 285 285 285 285 286 286 286 287 287 288 288 288 288 288 288 288 288 288 289 289 289 289 289 289 289 289 289 289 289 289 289 289 290 290 290 290 290 290 290 290 290 290 290 291 291 291 291 291 291 291 291 291
287 287 287 287 287 287 287 287 286 286 286 286 286 286 286 286 286 286 285 285 285 285 285 285 285 284 284 284 284 284 284 285 285 285 285 285 285 285 286 286 286 287 287 288 288 288 288 288 289 289 288 288 288 289 289 289 289 289 289 289 289 289 289 289 290 290 290 290 290 290 290 290 290 291 291 291 291 291 291 291 291 291 291 291 291 292
287 287 287 287 287 287 287 287 286 286 286 286 286 286 286 286 286 286 285 285 285 285 285 285 284 284 284 283 283 283 284 285 286 286 285 285 285 285 286 286 286 287 287 287 287 287 287 288 288 288 288 288 288 289 289 289 289 289 289 289 289 289 290 290 290 290 290 290 290 290 291 291 291 291 291 291 291 291 291 291 291 291 291 292 292 292
287 287 286 286 286 287 287 286 286 286 286 286 286 286 286 286 286 286 286 285 285 285 285 285 284 284 284 284 283 283 283 284 285 285 285 285 285 286 286 286 287 287 287 287 287 287 287 287 288 288 288 288 289 289 289 289 289 289 289 289 290 290 290 290 290 290 290 291 291 291 291 291 291 291 291 291 291 291 291 291 291 291 291 292 292 292
286 286 286 286 286 286 286 286 286 286 286 286 286 286 286 286 286 286 286 285 285 285 285 285 284 284 284 284 284 283 283 284 284 285 285 285 285 286 286 286 287 287 287 287 287 287 287 287 288 288 288 289 289 289 289 289 289 289 290 290 290 290 290 290 290 290 290 290 291 291 291 291 291 291 291 291 291 291 291 291 291 291 291 291 291 291
286 286 286 286 286 286 286 286 286 286 286 286 286 286 286 286 286 286 286 285 285 285 285 285 285 284 284 284 284 284 283 283 284 285 285 285 285 286 286 286 287 287 287 287 287 287 287 288 288 288 289 289 289 289 289 290 290 290 290 290 290 290 290 290 290 290 290 290 290 291 291 291 291 291 291 291 291 291 291 291 291 291 291 291 291 291
286 286 286 286 286 286 286 286 286 286 286 286 286 286 286 286 286 286 286 285 285 285 285 285 285 284 284 284 284 284 283 283 284 285 285 285 286 286 286 286 286 286 287 287 287 287 287 288 288 288 289 289 289 289 289 290 290 290 290 290 290 290 290 290 290 291 291 291 291 291 291 291 291 291 291 291 291 291 291 291 290 290 290 290 290 290
285 285 285 285 285 286 286 286 286 286 286 286 286 286 286 286 286 286 286 285 285 285 285 285 285 285 285 284 284 284 283 283 284 285 285 286 286 286 286 286 286 286 286 286 287 287 287 287 288 288 288 289 289 289 289 289 290 290 290 290 290 290 290 291 291 291 291 291 291 291 291 291 291 291 291 291 291 291 291 290 290 290 290 289 289 289
285 285 285 285 285 286 286 286 286 286 286 286 286 286 286 286 285 286 286 285 285 285 285 285 285 285 285 285 284 284 284 284 284 284 285 285 286 286 286 286 286 286 286 286 286 286 287 287 288 288 288 289 289 289 289 289 289 290 290 290 290 290 290 291 291 291 291 291 291 291 291 291 291 291 291 291 291 291 290 290 290 290 289 289 289 289
285 285 285 285 285 286 286 286 286 285 285 285 286 286 286 286 286 285 285 285 285 285 285 285 285 285 285 285 285 284 284 284 284 284 285 285 286 286 286 286 286 286 286 286 286 286 287 287 287 288 288 289 289 289 289 289 289 290 290 290 290 290 290 290 290 291 291 291 291 291 291 291 291 291 291 291 291 290 290 290 290 290 289 289 289 289
285 285 285 285 285 285 285 285 285 285 285 285 285 286 286 286 286 286 285 285 285 285 285 285 285 285 285 285 284 284 284 284 284 284 285 285 285 286 286 286 286 286 286 286 286 286 286 287 287 288 288 289 289 289 289 289 289 289 289 289 290 290 290 290 290 290 290 291 291 291 291 291 291 291 290 290 290 290 290 290 290 289 289 289 289 289
285 285 285 285 285 285 285 285 285 285 285 285 285 286 286 286 286 286 285 285 285 285 285 285 285 285 285 285 284 284 284 284 284 285 285 285 285 286 286 286 286 286 286 286 286 286 287 287 287 288 288 288 289 289 289 289 289 289 289 290 290 290 290 290 290 290 290 290 290 290 290 290 290 290 290 290 290 290 290 290 289 289 289 289 289 289
285 285 285 285 285 285 285 285 285 285 285 285 285 285 286 286 286 286 286 285 285 285 285 285 285 285 285 285 284 284 284 284 285 285 285 285 285 285 286 286 286 286 286 286 286 286 287 287 287 288 288 288 289 289 289 289 289 289 289 290 290 290 290 290 290 290 290 290 290 290 290 290 290 290 290 290 290 289 289 289 289 289 289 289 289 289
285 285 285 285 285 285 285 285 285 285 285 285 285 285 285 286 286 286 286 286 285 285 285 285 285 285 285 285 284 284 284 285 285 285 285 285 285 285 286 286 286 286 286 286 286 286 287 287 287 288 288 288 289 289 289 289 289 289 289 289 290 290 290 290 290 290 290 290 290 290 290 290 290 290 290 290 289 289 289 289 289 289 289 289 289 289
285 285 285 285 285 285 285 285 285 285 285 285 285 285 285 285 285 286 286 286 285 285 285 285 285 285 285 285 285 285 285 285 285 285 285 285 285 285 285 285 286 286 286 286 286 286 287 287 287 288 288 288 288 289 289 289 289 289 289 289 289 289 290 290 290 289 289 289 289 289 289 289 289 289 289 289 289 289 289 289 288 288 288 288 288 288
285 285 285 285 285 285 285 285 285 285 285 285 285 285 285 285 285 285 285 285 285 285 285 285 285 285 285 285 285 284 285 285 285 285 285 285 285 285 285 286 286 286 286 286 286 286 287 287 287 288 288 288 288 288 289 289 289 289 289 289 289 289 289 290 289 289 289 289 289 289 289 289 289 289 289 289 289 289 289 289 289 288 288 288 288 288
285 285 285 285 285 285 285 285 285 285 285 285 285 285 285 285 285 285 285 285 285 285 285 285 285 285 285 285 285 284 285 285 285 286 286 286 286 285 285 286 285 286 286 286 286 286 287 287 287 287 287 287 288 288 288 289 289 289 289 289 289 289 289 290 290 289 289 289 289 289 289 288 289 289 289 289 289 289 289 289 289 289 288 288 288 288
285 285 285 285 285 285 285 285 285 285 285 285 285 285 285 285 285 285 285 285 285 285 285 285 285 285 285 285 285 284 284 285 285 286 286 286 286 286 286 286 286 286 286 286 286 286 287 287 287 287 287 287 287 288 288 288 288 289 289 289 289 289 289 289 289 289 289 289 289 288 288 288 288 288 289 289 289 289 289 289 289 289 288 288 288 289
285 285 285 285 285 285 285 285 285 285 285 285 285 285 285 285 285 285 285 285 285 285 285 285 285 285 285 285 284 284 284 284 284 285 286 286 286 286 286 286 286 286 286 286 286 286 287 287 287 287 287 287 287 288 288 288 288 288 288 289 289 289 289 289 289 288 288 288 288 288 288 288 288 288 288 288 289 289 289 289 289 288 288 288 288 288
285 285 285 285 285 284 284 284 284 284 284 285 285 285 285 285 285 285 285 285 285 285 285 285 285 285 285 285 284 284 284 284 284 284 285 285 285 286 286 286 286 286 286 286 286 286 286 287 287 287 287 287 287 288 288 288 288 288 288 288 288 288 289 289 288 288 288 288 288 287 287 287 287 287 288 288 288 289 289 289 289 288 288 288 288 288
285 285 285 285 284 284 284 284 284 284 284 284 284 284 284 285 285 285 285 285 285 285 285 285 285 285 285 285 285 284 284 284 284 284 284 285 285 285 285 285 285 286 286 286 286 286 286 286 287 287 287 287 287 287 288 288 288 288 288 288 288 288 288 288 288 288 288 287 287 287 287 287 287 287 287 287 287 288 289 289 289 289 288 288 288 288
286 285 285 285 284 284 284 284 284 284 284 284 284 284 284 284 284 285 285 285 285 285 285 285 285 285 285 285 284 284 284 284 284 285 285 285 285 285 285 285 285 285 285 286 286 286 286 286 287 287 287 287 287 287 288 288 288 288 288 288 288 288 288 288 288 287 287 287 287 287 287 287 287 286 286 286 287 287 288 288 289 289 288 288 288 288
286 286 285 285 285 284 284 284 284 284 284 284 284 284 284 284 284 284 285 285 285 285 285 285 285 285 285 285 284 284 284 284 284 284 285 285 285 285 285 285 285 285 285 285 285 285 286 286 286 287 287 287 287 287 287 287 287 287 287 287 287 287 287 287 287 287 287 286 286 286 286 285 285 285 285 285 285 286 287 288 288 288 288 288 287 288
Wind_Speed
20 19 18 18 17 16 16 16 16 15 15 14 12 11 9 8 8 8 8 8 8 8 8 9 9 9 10 10 10 11 11 11 12 12 13 14 15 16 16 16 17 18 18 19 20 21 21 22 24 25 26 26 25 23 21 19 19 18 18 16 15 15 14 14 15 15 16 16 15 15 15 15 15 15 16 16 17 17 17 17 17 17 17 17 17 18
18 17 17 16 15 15 15 15 14 13 12 11 10 9 8 7 7 8 8 8 8 8 9 9 10 10 10 11 11 11 12 12 13 14 15 16 17 18 18 19 19 20 20 21 22 22 23 24 25 26 25 24 22 20 19 19 19 18 17 16 15 14 14 14 15 15 16 16 16 15 15 15 15 16 17 17 18 18 17 18 18 18 18 18 18 18
16 16 16 15 14 13 13 13 12 11 10 9 8 8 7 7 7 8 8 8 8 8 9 10 10 11 11 11 11 12 12 13 14 15 15 16 17 18 19 20 20 21 22 22 23 23 24 24 24 24 23 21 20 19 19 19 18 17 16 15 14 14 14 14 14 15 15 15 16 16 16 15 15 16 16 17 17 18 18 18 19 19 19 19 19 19
15 15 14 13 13 12 12 11 11 10 9 8 7 7 7 7 7 7 8 8 8 9 10 10 11 11 12 12 12 12 12 13 14 15 16 16 17 18 19 20 20 21 21 22 22 23 23 22 22 21 20 19 19 19 19 18 17 16 15 15 14 14 14 14 14 14 14 15 15 15 16 16 15 15 15 16 16 17 18 18 18 19 19 19 19 20
15 13 13 12 11 11 11 10 9 9 8 8 7 7 7 7 7 8 8 8 9 10 10 11 11 11 11 12 12 12 12 13 14 15 15 16 17 17 18 19 19 19 20 20 20 20 20 20 19 19 18 18 18 18 18 17 16 16 15 14 14 14 13 13 13 14 14 15 15 16 16 16 16 16 16 16 16 16 17 17 17 18 18 18 19 19
13 12 11 10 10 10 10 9 9 8 8 8 8 8 8 8 8 8 9 9 10 10 11 11 11 11 11 11 11 11 12 12 13 13 14 15 15 16 16 17 17 17 17 17 18 18 18 18 18 18 18 18 18 17 17 16 16 15 15 14 14 14 14 14 14 14 15 15 16 16 17 17 17 17 17 17 16 16 16 16 16 16 17 16 16 16
12 11 10 9 9 10 9 9 9 8 8 8 8 8 9 9 9 9 10 10 10 11 11 11 12 12 12 11 11 11 11 12 12 12 13 13 14 14 15 15 15 16 16 16 17 17 17 18 18 18 18 17 17 17 16 16 16 15 15 14 14 14 14 14 15 15 16 17 17 18 18 18 18 18 18 18 17 17 16 16 16 16 15 15 14 13
10 10 10 9 9 10 10 9 9 9 8 8 9 9 10 10 10 10 11 11 11 11 12 12 12 12 12 12 12 12 12 12 12 13 13 13 14 14 15 15 15 16 16 17 17 17 17 17 17 17 17 17 17 17 16 16 16 16 15 15 15 15 15 16 16 17 18 18 18 19 19 19 19 19 19 18 18 17 17 16 16 15 15 14 13 12
10 10 10 10 10 10 10 10 9 9 9 9 9 10 10 11 11 12 12 12 12 12 12 12 12 13 13 12 12 12 12 12 12 13 13 14 14 14 15 15 15 16 16 16 17 17 17 17 17 17 17 17 17 17 17 17 17 16 16 16 16 17 17 18 18 19 19 20 20 20 20 20 20 19 19 19 18 17 17 16 15 15 14 14 13 12
10 10 10 10 10 10 9 9 9 10 9 10 10 11 11 11 12 13 13 13 13 12 12 12 12 13 13 13 12 12 12 12 12 13 13 14 14 15 15 15 15 15 15 16 16 16 16 16 16 16 16 17 17 17 17 17 17 17 17 18 18 18 19 19 20 20 21 21 21 21 21 20 20 19 19 18 18 17 16 15 14 14 13 13 12 11
10 10 10 10 10 10 10 9 10 10 10 11 11 12 13 13 12 12 12 13 14 14 12 12 12 12 12 13 12 12 12 12 13 13 13 14 14 15 15 15 15 15 15 15 15 15 16 16 16 16 16 17 17 17 18 18 18 18 18 19 19 20 20 21 21 21 22 22 22 21 21 20 19 19 18 17 16 15 15 14 13 13 12 12 12 11
10 10 10 10 10 10 10 10 11 11 12 12 12 13 14 13 12 11 10 11 13 14 13 12 11 12 12 12 12 12 12 12 13 13 13 13 14 14 15 15 15 15 16 16 16 15 15 16 16 17 17 17 17 18 18 18 19 19 19 20 20 21 21 21 22 22 22 22 21 21 20 19 18 17 16 16 15 14 13 13 12 12 12 11 11 11
10 10 10 11 11 11 11 11 12 12 13 12 12 12 14 14 12 11 11 12 14 14 14 13 12 12 11 11 12 12 13 13 14 14 14 14 14 14 15 15 15 16 16 16 16 16 16 16 17 17 18 18 18 18 19 19 19 20 20 20 21 21 21 21 21 21 21 21 20 19 19 18 16 16 15 14 13 13 12 12 12 11 11 11 11 10
11 11 11 11 12 12 12 12 12 12 13 14 14 14 14 14 13 12 12 13 14 14 13 12 13 13 12 11 11 12 13 14 14 14 14 15 15 15 15 15 16 16 17 17 17 17 17 18 18 19 19 19 19 19 20 20 20 20 20 20 20 20 20 20 19 19 19 18 18 17 16 15 14 14 13 12 12 12 11 11 11 11 11 10 10 10
11 11 11 12 12 13 13 13 12 13 15 15 15 14 14 14 13 12 12 12 14 14 12 12 12 13 13 12 12 12 13 14 14 15 15 15 16 16 16 16 16 17 17 17 18 18 18 19 19 20 20 20 20 20 19 19 19 19 19 18 18 18 17 17 17 16 16 15 15 14 13 13 12 12 11 11 11 11 11 10 10 10 10 10 10 10
11 11 12 12 13 14 14 14 14 15 16 15 14 13 13 13 13 12 12 12 13 13 12 11 10 11 13 14 13 13 13 14 15 15 15 15 16 17 17 17 17 17 17 18 18 18 19 19 20 20 20 19 19 18 18 17 17 16 16 16 15 15 15 14 14 13 13 12 12 12 11 11 10 10 10 10 10 10 10 10 10 10 9 9 9 9
12 12 12 12 13 14 16 15 15 15 16 15 14 14 13 13 13 12 12 12 12 12 12 12 9 8 11 14 15 14 14 14 15 15 16 15 16 17 17 17 17 17 17 17 18 18 18 19 19 19 18 17 17 16 15 14 14 14 13 13 13 12 12 12 11 11 10 10 10 10 10 9 9 9 9 9 9 10 10 10 9 9 10 10 10 10
13 12 12 12 14 15 16 16 15 15 15 15 14 14 13 13 13 12 12 12 12 12 13 13 12 10 9 9 14 17 14 14 15 16 16 16 16 16 17 17 17 17 16 16 16 16 17 17 17 16 16 15 14 13 13 12 12 11 11 11 11 10 10 10 9 9 9 9 9 9 9 9 9 9 9 9 9 9 10 10 10 10 10 10 10 11
14 13 13 13 14 16 16 16 15 15 15 15 14 13 13 12 12 12 13 13 13 13 13 13 14 13 10 9 13 17 16 15 15 17 17 17 16 15 16 16 16 16 15 15 14 14 15 15 15 14 14 13 12 12 11 10 10 10 10 10 9 9 9 9 8 8 8 8 8 9 9 9 9 9 9 9 10 10 10 10 10 11 11 11 11 11
14 14 14 14 14 15 15 15 15 15 15 14 13 13 12 13 13 13 13 14 14 14 14 14 14 13 12 12 15 17 16 15 15 17 17 16 15 14 14 14 14 14 14 13 13 13 14 14 13 13 12 11 11 10 9 9 9 9 9 9 8 8 8 8 8 8 8 8 9 9 9 9 9 9 10 10 10 10 11 11 11 11 12 12 12 12
14 14 15 15 14 14 14 16 16 16 14 12 12 12 13 13 13 14 14 14 14 14 14 13 13 14 14 13 15 17 15 15 15 16 16 15 13 12 12 13 13 13 13 12 12 13 13 13 13 12 11 10 10 9 8 8 8 8 8 8 8 8 8 8 8 8 8 9 9 9 9 10 10 10 10 10 11 11 11 11 12 12 12 13 13 13
14 15 16 16 15 15 16 18 17 14 12 12 12 12 13 13 13 13 14 14 14 13 13 13 13 14 14 14 14 15 14 14 14 15 15 14 12 11 11 12 12 12 12 12 12 12 12 12 12 12 11 10 9 8 7 7 7 7 7 8 8 8 8 8 8 9 9 9 9 9 10 10 10 10 10 11 11 11 12 12 12 13 13 13 14 14
15 16 16 16 16 16 16 16 15 13 12 12 13 13 13 13 13 13 14 14 13 13 13 13 13 13 13 13 13 14 14 13 13 14 14 14 12 11 11 12 12 12 11 11 11 11 12 12 12 11 10 10 8 8 7 7 7 7 7 8 8 8 8 8 9 9 9 9 9 10 10 10 10 10 11 11 12 12 13 13 13 14 14 15 15 15
15 16 16 15 14 14 14 14 13 12 12 12 13 13 13 13 13 13 13 13 13 13 13 13 12 12 12 12 12 12 12 12 12 12 13 13 12 11 11 11 12 12 11 10 10 11 12 12 12 11 10 9 8 7 7 7 7 7 7 7 8 8 8 8 9 9 9 9 9 10 10 10 11 11 11 12 12 13 13 14 14 15 15 16 16 16
15 15 15 13 12 12 12 12 12 12 11 12 12 13 13 13 13 13 13 13 13 13 13 12 12 11 11 11 12 11 10 10 10 11 12 13 12 11 10 11 11 11 11 10 10 11 11 11 11 11 10 9 8 7 7 7 7 7 7 7 7 8 8 8 8 9 9 9 10 10 10 11 11 12 12 13 13 14 14 15 15 16 16 17 17 17
15 15 14 12 11 11 11 11 11 11 11 12 12 12 13 13 13 13 13 12 12 12 12 12 11 10 10 10 10 11 10 9 9 10 11 12 12 11 10 10 11 11 11 9 9 10 11 11 11 11 10 9 8 7 7 7 7 7 7 7 8 8 8 8 8 9 9 9 10 10 10 11 12 12 13 13 14 14 15 15 16 17 17 17 18 18
14 13 13 12 12 11 11 12 12 12 12 12 12 12 12 12 12 12 11 11 11 11 11 10 10 9 8 8 8 9 10 9 8 9 10 11 12 11 10 10 11 11 11 9 9 9 10 10 10 10 10 10 9 8 8 7 7 7 7 8 8 8 8 8 8 9 9 9 10 10 11 11 12 12 13 14 14 15 16 16 17 17 18 18 19 19
12 12 12 12 12 12 12 12 12 12 12 12 12 12 12 12 12 11 10 10 10 10 10 10 10 9 9 8 8 8 10 10 9 8 9 11 11 11 11 10 11 11 11 10 9 9 9 9 10 10 10 9 9 8 8 7 7 8 8 8 8 8 8 8 8 8 9 9 10 10 11 11 12 13 13 14 15 15 16 17 17 18 18 19 19 20
12 12 12 12 12 12 13 13 13 12 12 12 12 12 12 12 11 11 10 10 10 10 10 10 10 10 10 10 10 10 10 11 10 9 9 10 11 11 11 11 11 11 11 11 10 9 9 9 8 8 8 8 8 7 7 7 7 7 7 8 8 8 8 8 8 9 9 9 10 10 11 12 12 13 14 15 15 16 17 17 18 19 19 20 20 21
11 12 12 12 12 13 13 13 13 13 12 12 12 12 12 11 11 11 11 11 11 11 11 11 10 10 11 11 11 11 10 10 9 8 9 10 11 11 11 11 11 11 11 11 10 10 9 8 8 7 7 7 7 7 7 7 7 8 8 8 8 8 8 8 9 9 10 10 11 11 12 12 13 14 15 15 16 17 18 18 19 20 21 21 22 22
11 11 11 12 12 12 12 12 12 12 12 12 11 11 11 11 11 11 11 11 11 11 11 11 10 10 10 11 12 11 10 11 9 8 9 11 12 11 11 11 11 11 11 11 11 10 8 9 9 8 7 7 7 8 8 8 8 8 8 8 8 8 9 9 9 10 11 11 12 12 13 14 14 15 16 17 18 18 19 20 21 22 22 23 24 24
12 11 11 11 11 11 11 11 11 11 11 10 10 10 10 10 10 11 11 11 11 11 11 11 10 10 10 11 11 11 10 12 10 9 9 11 12 11 11 11 11 11 11 11 11 10 8 10 10 10 8 8 8 8 8 8 9 9 9 9 9 9 9 10 10 11 12 12 13 14 14 15 16 17 18 19 19 20 21 22 22 23 24 25 25 25
11 11 11 11 11 11 11 10 10 10 10 9 9 9 9 10 10 11 11 11 11 11 11 11 11 11 11 11 11 10 11 12 12 10 9 11 11 11 11 11 11 11 11 11 11 11 11 12 12 11 10 8 8 7 8 8 8 8 9 9 9 9 9 10 11 11 12 13 14 15 16 17 18 19 19 20 21 22 22 23 24 24 25 25 26 26
11 11 11 11 11 11 11 11 10 10 10 9 9 9 9 10 10 11 11 12 12 12 11 11 11 11 11 12 12 11 10 12 12 11 10 11 11 12 11 11 11 12 12 12 12 12 13 13 12 12 11 9 8 7 7 7 7 7 8 8 8 9 9 10 11 12 13 13 14 15 16 17 18 19 20 21 22 23 23 24 24 24 25 25 25 25
11 11 11 12 12 12 11 11 11 10 10 10 10 10 10 10 11 11 11 11 12 11 11 11 11 11 12 12 13 12 10 12 13 12 10 11 12 12 12 12 11 12 12 13 13 13 13 13 13 13 13 11 9 8 8 8 8 7 7 8 8 9 10 10 11 12 12 13 14 14 15 16 18 19 20 21 22 22 23 23 24 24 24 24 24 24
11 11 11 11 11 11 11 11 11 11 11 11 10 10 10 11 11 11 11 11 11 11 11 11 11 11 12 12 13 12 11 13 14 13 11 11 12 12 12 12 12 12 12 13 14 14 15 14 14 13 13 13 11 10 9 9 9 9 8 9 9 10 10 11 11 12 12 13 13 14 15 16 17 18 19 20 21 22 22 22 23 23 23 23 23 22
10 10 10 10 11 11 11 11 11 11 11 11 11 10 11 11 11 11 11 11 11 11 11 11 11 12 12 12 12 12 12 13 14 13 12 12 12 12 13 13 12 12 12 13 14 15 15 16 15 14 14 14 13 12 11 11 11 11 11 11 11 11 11 12 12 13 13 13 14 14 14 15 16 17 18 19 20 21 21 22 22 22 22 22 22 22
9 9 10 10 11 11 11 10 10 10 10 11 10 10 10 11 11 11 11 11 11 11 11 11 12 12 12 12 13 13 13 13 14 14 13 13 13 13 13 13 13 13 13 14 15 15 16 17 17 16 16 15 14 14 13 13 13 13 13 13 13 13 13 13 14 14 14 14 14 15 15 15 15 16 17 18 19 20 20 21 21 21 21 21 21 21
9 10 10 10 11 11 11 11 10 10 10 11 11 11 10 10 10 10 10 11 11 11 11 12 12 12 12 13 13 13 13 13 14 14 14 13 13 14 14 14 14 14 14 14 15 16 16 17 17 17 17 17 16 15 14 14 15 15 15 15 14 14 14 14 15 15 15 15 15 15 15 15 16 16 17 17 18 19 19 19 20 20 20 20 20 20
10 10 10 11 11 11 11 11 11 11 11 11 11 11 11 10 10 10 10 10 11 11 11 12 12 12 13 13 13 13 13 13 14 14 14 14 14 14 15 15 15 15 15 15 16 16 17 17 17 17 17 18 18 17 16 16 16 16 16 17 16 16 15 16 16 16 16 16 16 16 16 16 16 16 17 17 17 18 18 19 19 19 20 20 20 20
11 11 11 11 11 11 11 11 11 11 11 11 11 11 11 11 11 10 10 10 11 11 11 12 12 13 13 13 13 13 13 14 14 14 14 14 15 15 15 16 16 16 16 17 17 17 17 18 18 18 17 17 18 18 18 18 17 17 17 18 18 18 17 17 17 17 17 18 18 18 17 17 17 17 17 17 18 18 18 18 19 19 19 20 20 20
11 11 12 12 12 12 11 11 12 12 12 12 12 12 11 11 11 11 11 11 11 11 12 12 13 13 13 14 14 14 14 14 14 14 15 15 15 15 16 16 16 17 17 18 18 18 18 18 18 18 18 18 18 19 19 19 19 18 19 19 19 19 19 19 19 18 19 19 19 19 19 18 18 18 18 18 18 18 18 19 19 19 20 20 20 21
12 12 12 12 12 12 12 12 12 12 12 12 12 12 11 11 11 11 11 11 12 12 12 12 13 13 14 14 14 14 14 14 14 14 15 15 15 15 16 16 17 17 18 18 19 19 19 18 18 18 18 18 19 20 20 20 20 19 19 19 20 21 21 20 19 19 20 20 20 20 19 19 18 18 19 19 19 19 19 19 19 20 20 20 20 21
12 12 12 12 13 13 13 12 12 12 12 12 12 12 12 12 11 12 12 12 12 12 13 13 14 14 15 14 14 14 15 15 15 15 15 15 15 16 16 17 17 18 18 19 19 19 19 19 19 19 19 19 20 20 21 21 21 20 20 20 20 21 22 21 21 21 21 21 21 20 20 19 19 19 20 20 20 20 20 20 20 20 20 20 21 21
13 13 13 13 13 13 13 13 13 13 13 12 12 12 12 12 12 12 12 12 13 13 13 14 14 15 15 15 15 15 16 16 16 15 15 15 15 16 16 17 17 18 18 19 19 19 19 19 19 19 20 20 21 21 21 21 21 21 21 21 21 22 22 22 22 22 22 22 21 21 20 20 20 20 21 21 21 21 21 21 21 21 21 21 21 22
14 14 14 14 14 14 14 14 14 14 14 13 13 13 13 13 13 13 13 13 13 14 14 15 15 15 16 16 15 15 16 17 17 17 16 15 15 15 16 16 17 18 18 18 19 19 19 19 19 20 20 21 22 22 22 22 22 22 21 21 21 22 23 23 23 23 23 23 22 22 21 21 21 22 22 22 22 22 22 21 21 21 21 22 22 22
14 14 15 15 15 15 15 15 15 15 15 14 14 14 14 13 13 13 14 14 14 14 15 16 16 16 16 16 16 16 16 17 18 18 17 17 16 15 15 16 16 17 18 18 19 19 19 20 20 21 21 22 23 23 23 22 22 22 22 22 22 23 23 24 24 24 24 23 23 22 22 22 22 22 23 23 23 23 22 22 22 22 22 22 22 22
14 15 15 15 15 15 15 15 15 15 15 15 15 15 15 15 14 14 15 15 15 15 16 16 17 17 17 17 17 17 17 17 18 18 18 18 17 17 16 16 17 17 18 18 19 19 20 20 21 21 22 23 23 24 23 23 22 22 22 22 22 22 23 24 24 24 24 24 24 23 23 22 22 22 23 23 23 23 23 22 22 22 22 22 22 22
15 15 15 16 16 16 16 16 16 16 16 16 16 16 16 16 16 15 15 16 16 16 17 17 17 18 18 18 17 17 17 18 18 18 18 18 17 17 17 18 18 18 18 19 19 20 21 21 22 22 22 22 23 23 23 22 22 21 21 21 22 22 23 24 24 25 25 25 25 25 24 23 23 22 22 23 24 24 24 23 23 23 22 22 22 23
15 16 16 16 16 16 16 16 16 16 17 17 17 17 17 17 17 17 16 16 17 17 17 17 18 18 18 18 18 18 18 18 19 18 18 17 17 17 17 18 18 18 19 19 20 21 22 22 23 23 23 22 22 21 21 21 21 21 21 21 22 22 23 24 25 25 25 25 25 25 24 24 23 23 23 23 24 25 26 25 24 24 23 23 23 23
16 16 16 16 16 17 17 17 17 17 17 17 17 18 18 18 18 18 18 17 17 17 17 18 18 18 19 19 19 19 19 19 19 19 18 17 17 17 17 17 18 18 19 19 20 21 22 23 24 24 23 22 21 20 20 20 20 20 21 21 22 22 23 24 24 25 25 25 24 24 24 23 23 24 24 24 25 26 27 28 27 25 24 24 24 24
Wind_Direction
275 275 276 277 278 279 279 280 280 279 279 279 278 277 278 281 284 288 290 292 291 289 288 286 283 279 275 271 267 263 259 252 245 240 238 238 237 237 238 239 241 244 246 248 250 253 256 260 263 266 268 270 273 276 279 283 286 287 286 285 283 280 278 275 274 273 273 271 269 266 263 259 253 249 247 249 251 252 253 254 254 255 255 255 254 253
273 274 274 275 276 276 276 277 276 274 273 272 271 270 273 280 287 290 290 288 286 283 281 279 278 275 270 267 263 259 255 251 247 243 241 241 241 241 242 243 245 248 250 252 254 257 260 262 264 266 268 271 274 278 282 285 287 287 286 285 283 281 279 278 276 275 274 272 269 266 264 260 257 253 251 252 253 254 255 256 256 257 257 257 257 257
272 272 272 273 274 273 271 272 271 268 265 264 263 264 269 276 282 286 288 286 283 280 277 275 272 269 265 263 259 256 253 250 247 246 245 244 244 245 246 247 249 251 253 254 257 259 260 262 264 266 269 274 278 282 285 287 287 288 287 286 285 283 281 279 276 275 273 271 269 267 266 264 261 259 257 257 256 257 257 257 258 258 258 259 259 259
271 270 271 272 272 269 266 264 262 259 255 254 256 260 267 273 275 277 279 280 279 277 275 272 269 265 261 258 255 253 251 249 247 247 247 246 247 248 249 250 251 252 254 255 257 258 261 263 266 270 274 279 283 285 287 288 289 290 289 288 287 285 282 279 276 274 273 272 271 271 270 269 268 266 263 261 259 258 257 257 258 258 259 259 259 259
269 268 269 269 266 262 259 255 251 249 248 250 254 261 266 270 271 271 273 274 274 274 273 270 267 263 260 256 253 251 249 247 247 247 247 247 248 249 249 251 252 253 255 256 258 261 264 268 272 277 281 284 285 287 288 289 290 290 290 289 288 286 284 281 278 276 275 275 275 275 276 275 275 274 272 269 266 263 260 259 258 258 258 259 259 260
269 267 265 263 258 252 249 245 242 243 246 252 256 261 266 268 269 269 269 270 271 271 272 271 269 266 263 260 257 254 252 250 250 250 251 251 251 252 253 254 256 258 259 262 265 268 272 276 280 283 285 286 287 287 288 289 289 289 289 289 288 287 285 283 281 279 278 278 279 279 280 280 280 280 280 278 275 272 267 264 262 261 261 261 262 262
268 263 259 254 249 244 240 238 239 242 248 254 260 263 266 268 269 269 269 269 269 269 270 270 270 269 267 265 263 260 259 259 259 259 259 260 260 261 262 264 266 268 270 272 274 277 279 282 284 286 286 287 287 288 288 288 289 289 289 289 288 288 286 285 283 282 281 280 281 282 282 283 284 284 284 283 281 278 274 270 266 264 263 263 263 262
262 257 251 244 240 238 237 237 240 246 252 259 264 266 267 269 271 271 272 272 271 270 269 269 270 269 269 268 266 265 265 266 266 267 267 267 268 269 270 272 274 275 276 278 279 281 282 283 285 285 286 287 287 288 288 289 289 290 291 291 290 289 288 286 285 284 283 282 282 282 283 284 284 285 284 283 281 279 275 271 268 265 263 261 260 258
252 247 243 239 236 236 238 242 247 252 258 264 267 268 270 272 274 275 275 274 273 271 270 270 271 271 271 271 270 270 270 270 270 271 271 272 272 273 274 275 275 276 278 279 280 281 282 282 283 284 284 285 286 287 288 289 290 291 292 292 291 290 289 288 287 286 285 284 284 283 283 283 283 283 283 281 280 277 273 270 266 264 261 258 255 252
244 239 238 239 239 240 244 250 256 261 265 268 271 271 272 273 275 278 278 276 273 272 271 271 272 273 275 276 275 274 274 274 273 274 274 275 276 277 277 277 277 277 278 278 279 279 280 281 282 282 283 284 285 286 287 289 290 291 292 292 291 290 290 289 287 286 285 285 284 284 283 283 282 281 280 278 276 273 270 266 263 260 257 255 251 247
239 238 238 240 243 248 252 257 263 267 270 272 273 273 272 270 271 274 277 279 277 275 273 271 272 274 278 280 280 279 279 278 277 277 276 277 278 279 280 280 280 279 279 279 279 280 281 281 281 282 282 283 284 285 286 288 289 289 290 290 290 289 288 286 285 284 284 283 283 283 282 282 281 279 277 275 272 269 265 261 258 254 252 249 247 242
238 240 242 246 250 255 260 264 268 270 272 272 273 272 270 270 270 269 267 269 274 277 278 278 276 275 277 281 283 284 283 282 281 280 279 278 277 278 279 280 280 281 280 280 280 281 282 282 282 282 283 283 284 285 286 287 287 288 288 287 287 286 284 283 282 282 281 281 281 281 281 280 278 276 273 270 267 263 259 255 251 248 246 244 242 239
242 245 249 254 259 263 266 268 269 271 270 268 264 262 266 272 274 270 265 262 266 273 281 284 282 279 278 280 283 284 284 283 282 282 281 279 278 277 278 279 280 281 282 282 283 283 283 283 283 283 284 284 285 285 285 286 286 286 285 284 283 282 281 280 279 278 278 278 278 278 278 276 274 271 268 264 260 256 252 249 245 243 241 239 237 237
247 252 256 260 264 267 269 269 269 268 266 265 264 267 273 276 275 270 266 263 266 272 279 282 283 283 280 280 281 283 284 283 283 282 282 282 281 280 279 280 281 282 284 284 285 285 286 286 285 285 285 285 286 286 285 285 285 284 283 281 280 279 278 277 276 276 275 275 275 275 273 271 269 265 261 258 254 251 247 244 242 240 238 237 236 236
253 258 263 265 266 267 268 269 267 265 265 268 271 273 274 272 270 267 264 263 267 272 276 279 283 286 284 284 283 282 283 283 283 283 283 283 284 283 283 283 283 284 285 285 286 287 287 287 287 287 287 287 287 286 286 285 283 282 281 279 278 277 276 276 275 274 274 273 272 270 268 265 262 259 255 251 249 246 244 242 241 240 239 238 238 239
260 263 265 267 268 268 269 268 266 265 268 272 272 270 266 265 266 266 264 265 270 275 277 279 283 286 286 287 285 284 283 283 283 283 283 284 285 285 286 286 286 286 287 287 288 288 288 288 288 288 289 289 289 288 286 284 282 281 279 279 278 277 276 275 274 273 271 269 267 264 261 258 256 252 250 247 244 243 242 242 242 242 242 242 243 244
265 265 265 264 264 266 270 270 269 269 272 272 270 267 264 264 266 268 267 268 271 274 276 277 275 273 279 290 288 283 281 282 283 283 283 283 284 285 286 287 288 288 289 289 289 290 289 289 289 290 291 292 291 291 289 286 284 281 280 279 278 277 276 274 272 270 267 264 261 258 254 252 249 247 245 243 242 241 241 241 242 243 244 245 246 248
265 264 262 258 258 264 269 271 271 271 271 269 266 265 266 266 267 267 267 267 269 271 273 275 273 268 267 287 287 282 281 282 284 285 285 285 284 285 287 288 289 290 291 292 292 291 290 290 291 292 293 295 295 294 292 289 285 282 280 278 277 275 273 272 269 266 262 258 255 251 248 246 244 243 242 241 240 239 240 240 242 244 245 247 248 249
264 263 258 254 258 264 268 269 269 268 267 266 266 266 265 265 265 265 265 266 266 268 270 273 275 273 266 265 272 277 283 285 286 286 286 287 287 287 288 290 291 292 294 295 295 293 292 292 293 295 296 297 298 297 294 290 286 281 278 275 273 271 269 267 264 261 257 253 249 247 245 243 241 240 240 239 239 239 240 241 243 244 246 248 249 251
263 261 256 256 260 264 266 266 265 265 267 270 271 270 267 266 265 264 264 265 266 268 270 271 274 273 268 260 265 275 284 286 286 286 287 289 291 292 291 293 294 295 297 298 298 296 295 295 296 297 299 300 299 298 294 289 283 278 274 271 268 266 264 261 259 256 253 249 247 244 242 241 241 240 240 240 240 240 241 242 244 246 248 249 251 252
261 259 258 259 259 257 256 260 265 269 272 272 270 268 267 267 267 267 268 268 269 269 270 270 271 271 270 266 269 277 286 287 286 287 288 290 294 296 293 294 296 298 300 300 299 297 296 296 297 299 300 301 301 298 294 287 279 273 268 265 263 260 258 257 255 252 250 248 246 244 242 241 241 241 241 241 242 243 243 245 246 248 249 251 252 254
259 258 260 260 258 256 257 264 269 272 271 268 265 264 265 267 268 270 272 273 274 274 274 272 270 271 274 276 278 281 286 286 286 288 289 292 296 298 294 296 297 298 299 300 299 297 296 297 298 300 301 302 302 299 293 284 276 269 264 261 259 258 256 254 253 251 250 249 247 246 244 243 243 243 244 244 244 245 246 247 248 249 251 252 253 254
259 259 261 261 261 262 264 267 270 270 267 264 263 263 265 267 268 270 272 274 276 276 275 273 273 274 277 278 278 279 281 283 284 286 289 291 295 297 295 297 297 298 299 300 299 297 296 296 298 300 301 302 302 299 293 283 274 267 262 259 258 257 257 256 254 253 252 251 250 249 248 247 246 246 246 246 247 247 248 249 250 251 252 253 254 255
263 263 265 266 267 267 267 267 267 266 265 264 264 264 266 267 267 268 271 273 274 274 274 274 275 276 277 276 276 276 277 279 281 284 287 290 293 295 296 298 297 298 299 300 300 298 296 296 297 299 300 301 301 298 291 283 275 267 262 260 259 258 258 257 257 256 255 254 253 252 251 249 249 248 248 248 249 249 250 251 252 253 254 255 256 257
270 271 272 272 270 268 268 268 269 268 266 265 264 264 264 265 265 267 268 270 271 272 272 274 276 278 278 278 277 276 275 274 277 282 286 290 292 295 296 296 296 297 300 302 300 298 297 297 298 299 300 301 300 296 288 282 275 269 264 261 259 258 257 256 255 255 254 253 252 251 251 250 250 250 250 251 251 252 253 254 255 256 257 258 258 259
276 277 278 277 275 273 272 272 272 271 268 266 265 264 264 264 264 264 264 265 266 267 269 272 273 275 276 278 282 284 280 275 275 279 285 289 293 296 296 295 295 297 299 302 301 298 297 297 298 299 300 301 299 294 287 282 276 271 266 262 259 258 257 255 255 254 253 252 252 252 252 252 252 252 253 253 254 255 256 257 258 259 260 261 261 261
275 277 278 278 277 275 274 273 272 270 269 267 266 265 264 264 263 262 260 260 261 262 265 271 273 273 275 277 280 284 285 285 282 280 282 287 292 296 295 295 296 297 299 301 301 299 297 297 298 299 300 300 298 293 287 281 276 273 269 265 263 262 260 259 258 257 256 256 256 255 255 255 255 256 257 257 258 259 260 261 262 263 264 264 265 265
273 274 275 275 275 274 273 272 271 270 269 267 265 263 262 262 262 260 256 256 257 261 264 268 271 274 275 274 271 274 282 289 290 285 282 286 291 294 295 295 297 298 300 301 301 299 295 295 296 298 299 298 296 292 287 282 278 274 272 270 268 267 266 266 264 263 262 261 260 260 260 260 260 260 261 262 263 264 265 266 267 268 269 269 270 270
269 269 270 271 272 272 272 272 271 270 269 267 265 263 261 261 260 259 256 255 257 260 262 264 267 272 274 274 272 273 278 285 289 289 286 288 290 292 294 296 298 299 301 301 302 301 297 294 295 297 297 296 293 290 286 282 279 277 275 273 273 273 272 271 271 270 269 268 267 267 266 267 267 267 268 269 269 270 271 272 273 274 274 275 275 276
268 267 267 268 268 269 270 271 272 272 271 270 268 267 265 263 261 260 258 257 258 260 262 265 267 270 273 275 277 278 280 282 284 288 287 288 290 291 294 296 298 300 301 302 307 309 306 298 296 296 294 292 291 289 286 283 280 279 278 278 278 278 278 278 277 277 276 276 275 275 275 275 275 275 275 276 276 277 277 278 279 279 279 280 280 281
274 273 272 271 269 269 270 271 273 274 274 273 272 271 269 266 264 262 261 260 260 262 264 266 267 267 269 272 273 275 281 281 283 284 281 284 286 289 291 294 296 297 299 302 307 311 310 297 294 296 292 289 287 285 283 282 281 281 281 282 282 283 283 283 283 282 282 282 282 282 282 282 282 282 281 281 281 282 282 282 282 282 282 283 283 284
278 278 277 275 274 273 273 273 273 273 273 273 272 270 268 266 264 262 262 261 261 262 264 265 265 265 266 269 269 270 276 279 280 279 275 278 281 284 286 289 292 295 297 297 299 301 301 293 292 294 293 289 284 281 279 278 279 280 281 283 284 286 286 287 287 287 288 288 288 288 288 287 287 286 286 285 285 285 285 284 284 283 284 284 284 284
274 275 275 275 275 275 275 275 274 274 273 272 269 266 263 260 259 259 259 260 261 263 264 265 266 265 266 268 269 269 271 276 277 275 271 273 276 279 282 285 288 292 294 294 293 293 293 294 294 294 292 288 284 280 276 273 273 274 277 280 282 284 286 288 289 289 290 290 290 290 290 290 289 289 288 288 287 287 286 285 284 284 283 283 284 284
268 270 272 273 275 276 278 278 278 278 277 275 272 268 264 260 258 258 258 259 261 263 265 267 268 268 269 269 270 269 267 272 274 273 269 270 273 276 279 282 286 290 293 294 294 293 293 294 296 297 294 291 287 284 278 271 266 265 268 272 276 280 282 283 284 285 285 286 287 288 288 288 288 288 288 288 287 287 286 285 284 283 283 283 283 283
265 268 270 273 275 277 279 281 283 282 282 280 277 273 270 267 264 262 261 261 262 264 266 268 269 270 271 271 272 270 263 266 270 272 270 270 272 274 277 280 284 288 291 293 294 295 295 295 296 297 297 295 293 290 284 276 268 264 264 267 271 274 277 279 280 281 281 283 283 284 284 285 285 285 286 286 286 286 286 285 285 285 284 284 285 284
267 268 270 272 275 277 279 280 281 282 281 280 277 275 272 270 268 266 265 265 265 266 268 269 270 271 271 272 273 272 265 265 269 273 272 271 272 274 277 279 282 285 288 291 293 294 295 295 295 295 295 296 297 295 289 284 280 278 278 278 278 280 281 284 285 285 286 287 286 286 285 284 284 284 285 285 286 286 286 287 287 287 287 287 287 287
270 271 272 273 275 276 278 278 278 278 278 278 276 273 270 269 268 268 268 268 268 269 269 270 271 271 271 272 272 272 269 268 270 274 274 273 273 275 277 279 281 283 286 289 292 294 294 295 295 294 294 296 297 297 295 291 291 293 294 294 293 294 294 295 295 295 294 295 294 293 291 289 288 287 286 286 286 286 286 287 288 288 289 289 289 290
279 279 279 278 278 279 279 278 278 277 277 276 275 273 270 268 268 268 269 270 270 270 271 271 271 271 271 270 270 270 269 268 270 273 274 274 275 276 278 279 281 283 285 287 290 292 293 294 295 295 296 295 294 295 295 294 295 297 298 298 298 299 300 300 300 300 301 301 301 300 299 297 294 291 289 287 286 286 287 287 287 288 288 289 289 289
284 283 283 282 282 282 282 282 280 279 277 276 275 273 272 271 271 271 271 272 272 272 273 273 272 272 271 270 269 268 268 268 269 271 272 273 275 276 278 279 281 283 285 286 287 288 290 291 293 294 296 296 295 294 293 294 295 297 298 297 297 298 300 301 302 304 305 306 306 306 305 303 299 295 292 289 287 287 286 287 287 287 287 288 288 287
282 282 282 282 282 282 282 282 282 280 278 277 276 275 275 275 275 274 274 274 274 274 274 274 274 273 271 270 268 268 267 267 267 268 269 271 273 275 277 279 281 283 284 285 285 286 287 289 291 291 293 294 295 295 294 294 295 296 297 298 300 301 302 303 305 306 307 307 308 308 308 305 302 298 294 291 289 287 286 286 287 287 287 287 286 286
281 282 282 281 281 281 281 281 281 280 279 278 278 278 278 278 278 277 276 275 274 274 274 274 273 272 271 270 269 268 267 266 266 266 266 268 269 272 274 277 279 281 283 283 284 284 285 287 288 289 290 292 293 293 293 294 295 297 298 300 302 303 303 304 305 306 306 307 308 309 309 307 304 300 296 293 290 288 287 287 287 286 286 286 286 285
282 282 283 282 282 281 281 279 279 278 278 279 279 279 279 279 280 279 279 277 275 274 273 273 272 272 271 270 269 268 267 266 265 265 265 266 267 269 271 274 276 279 280 281 282 283 283 285 286 287 289 290 291 291 291 293 294 296 298 300 302 302 302 303 304 305 307 308 309 310 310 308 305 302 298 294 292 290 288 287 286 286 285 285 285 284
283 283 283 283 283 282 280 279 278 278 278 279 279 280 280 280 280 281 281 281 279 278 276 275 274 274 273 271 270 268 266 265 264 264 264 265 266 268 269 271 274 276 278 279 281 282 283 283 284 285 286 287 288 289 290 292 293 295 297 300 301 303 304 304 304 304 305 306 308 309 308 307 304 300 297 293 291 289 288 286 285 285 284 284 283 283
285 285 285 285 284 284 283 281 280 279 279 279 279 279 279 279 279 279 280 280 280 280 279 279 278 277 276 275 274 272 270 267 264 263 263 264 265 266 268 270 271 273 275 277 279 281 282 282 283 284 285 286 286 287 288 290 292 295 297 299 301 301 302 302 303 303 303 304 306 306 306 304 301 298 295 292 290 288 287 286 285 284 284 284 284 284
287 287 287 286 285 285 285 284 283 282 280 280 279 279 278 278 278 278 279 279 280 280 280 280 280 279 278 278 277 276 275 274 270 266 263 262 263 264 266 268 270 271 273 275 276 278 280 281 283 284 285 285 285 286 288 290 292 295 297 299 300 300 300 300 301 302 304 305 305 305 305 303 300 297 294 292 290 289 287 286 286 286 286 286 286 286
287 287 286 286 286 286 286 286 285 284 283 282 281 280 280 279 279 279 279 279 279 280 280 280 280 280 280 281 280 278 278 278 278 276 272 267 264 263 264 266 268 270 271 273 274 275 277 279 281 283 284 285 285 286 288 291 294 296 298 299 300 300 300 301 301 303 304 305 305 305 304 302 300 297 294 292 290 288 287 286 286 286 286 287 287 287
285 285 285 285 286 286 286 286 286 286 285 284 283 282 281 280 280 279 279 279 279 279 280 280 280 280 280 281 280 279 278 278 279 280 280 278 275 271 269 268 268 269 270 272 273 274 275 277 278 280 282 284 286 287 290 292 295 298 299 300 300 300 300 301 302 302 303 303 304 304 303 301 299 296 294 292 289 287 286 285 285 285 286 287 289 290
283 284 283 284 284 284 284 284 285 284 284 284 284 283 282 281 280 279 278 278 278 278 279 279 279 279 279 279 279 278 277 276 276 277 280 281 282 281 278 276 274 273 272 273 274 275 276 277 277 279 281 283 286 289 292 295 297 298 299 299 299 299 300 300 301 302 302 302 303 303 302 300 298 297 295 293 291 288 287 286 286 286 287 289 291 292
283 282 282 282 282 282 283 283 283 283 283 283 282 282 281 280 279 277 277 277 278 278 278 278 279 279 279 279 278 277 276 275 275 275 276 278 280 281 281 280 279 279 278 277 278 278 278 278 279 280 281 284 287 290 294 296 298 298 298 298 298 299 300 301 301 301 301 302 302 302 302 301 300 299 298 296 294 293 291 289 289 288 289 291 292 293
282 281 281 281 281 281 281 281 282 282 281 281 281 280 280 280 279 277 276 276 277 277 278 278 279 280 280 280 280 279 278 277 276 276 275 276 276 277 278 278 279 280 281 281 282 282 284 284 284 284 285 288 290 292 295 296 297 298 297 297 297 299 299 300 301 301 301 302 302 303 303 303 303 302 301 299 297 296 295 293 292 292 292 294 294 294
281 281 281 280 280 280 280 280 280 280 280 280 279 279 279 279 279 279 278 277 277 277 277 278 278 279 280 281 281 280 279 279 278 278 277 277 277 276 276 276 277 278 280 281 283 284 286 288 289 290 291 292 294 295 295 295 296 296 296 296 297 298 298 298 299 299 300 301 302 302 302 302 302 301 301 298 297 296 295 295 295 294 294 295 295 295